Tracking 19193 objects as of 22-Jun-2018
HD Live streaming from Space Station
objects crossing your sky now

CRRES DEB (CANISTER)

Track CRRES DEB (CANISTER) now!


NORAD ID: 27051
Int'l Code: 1990-065U
Perigee: 310.3 km
Apogee: 30,158.5 km
Inclination: 18.3 °
Period: 526.7 minutes
Semi major axis: 21605 km
RCS: 0.1304 m2 (medium)
Launch date: July 25, 1990
Source: United States (US)
Launch site: AIR FORCE EASTERN TEST RANGE (AFETR)

Note: This is SATELLITE DEBRIS
aabbcc
Your satellite tracking list
Your tracking list is empty




NASA's NSSDC Master Catalog

Two Line Element Set (TLE):
1 27051U 90065U   18172.31900298 +.00000002 +00000-0 +31174-3 0  9997
2 27051 018.2734 044.7886 6907588 195.9926 120.1468 02.73375544052125
Source of the keplerian elements: AFSPC